User: anonymous   Login
Location: Unspecified
(0.0000°N, 0.0000°E)
Time: 18:52:05
(UTC+00:00)
Language:

OBJECT BW - Orbit

View from above orbital plane
View from above orbital plane
View from above satellite
View from above satellite

Ground track
Ground track

The orbit data is extracted from the following two-line orbital elements,

1 42016U 17008BW  17084.71932377 +.00002489 +00000-0 +11027-3 0  9995
2 42016 097.5051 146.3126 0007737 142.0508 218.1268 15.22559801005763
Epoch (UTC): 25 March 2017 17:15:49
Eccentricity: 0.0007737
inclination: 97.5051°
perigee height: 493 km
apogee height: 503 km
right ascension of ascending node: 146.3126°
argument of perigee: 142.0508°
revolutions per day: 15.22559801
mean anomaly at epoch: 218.1268°
orbit number at epoch: 576

The dashed part of the orbit path shows where the satellite is in the earth's shadow,  

DLR